Regional Weather Roundup
Issued by NWS Bismarck, ND

Home | Current Version | Previous Version | Text Only | Print | Product List | Glossary On
Versions: 1 2 3 4 5 6 7 8 9 10 11 12 13 14 15 16 17 18 19 20 21 22 23 24 25 26 27 28 29 30 31 32 33 34 35 36 37 38 39 40 41 42 43 44 45 46 47 48 49 50
449
ASUS43 KBIS 211702
RWRBIS

NWR BROADCAST TEXT
NATIONAL WEATHER SERVICE BISMARCK ND
1200 PM CDT FRI JUL 21 2017

NOTE: "FAIR" INDICATES FEW OR NO CLOUDS BELOW 12,000 FEET WITH NO
SIGNIFICANT WEATHER AND/OR OBSTRUCTIONS TO VISIBILITY.


CITY           SKY/WX    TMP DP  RH WIND       PRES   REMARKS
WILLISTON      MOSUNNY   82  60  47 SW7       29.81R
MINOT          TSTM      72  63  73 NE3       29.81R
MINOT AFB      TSTM      66  64  94 S14       29.77R
BISMARCK       MOSUNNY   82  65  56 CALM      29.84F
DICKINSON      SUNNY     82  64  54 VRB5      29.83S
GARRISON         N/A     82  64  54 VRB6      29.80F
HETTINGER ARPT MOSUNNY   83  63  50 VRB3      29.87S
JAMESTOWN      MOSUNNY   85  66  53 N6        29.81F
HAZEN          FAIR      82  64  54 S9        29.83S
LINTON           N/A    N/A N/A N/A VRB5      29.86S
MANDAN         FAIR      79  66  65 S10       29.85F
STANLEY        FAIR      73  66  78 E6        29.83F
TIOGA          FAIR      79  59  50 E9        29.82F
WATFORD CITY   FAIR      84  59  42 SE10      29.79F
$$

CITY           SKY/WX    TMP DP  RH WIND       PRES   REMARKS
GRAND FORKS    PTSUNNY   83  73  72 S7        29.78S
GRAND FORKS AF MOSUNNY   83  73  70 S3        29.79S
DEVILS LAKE    PTSUNNY   82  67  60 SW9       29.81R
FARGO          CLOUDY    85  72  65 W6        29.77F HX  91
CAVALIER       FAIR      75  70  83 SE8G15    29.78F
GRAFTON        FAIR      79  72  78 CALM      29.82R
GWINNER        MOSUNNY   84  75  74 CALM      29.80S HX  92
LANGDON        CLOUDY    81  73  78 W3        29.86R
ROLLA            N/A     70  70 100 VRB5      29.84R
$$

CITY           SKY/WX    TMP DP  RH WIND       PRES   REMARKS
ABERDEEN       CLOUDY    82  73  74 SW6       29.82R
MOBRIDGE       SUNNY     86  73  65 NW3       29.80S HX  93
BUFFALO          N/A     82  62  50 NW15      29.83R
RAPID CITY     MOSUNNY   86  58  38 NW14      29.91R
GLASGOW        SUNNY     82  44  26 NW16G23   29.88R
SIDNEY         SUNNY     84  59  42 SW14      29.82S
WOLF POINT     SUNNY     81  59  47 SW9       29.85S
GLENDIVE       SUNNY     85  59  41 W17       29.89R
MILES CITY     SUNNY     88  33  14 NW20G26   29.94R
BAKER          SUNNY     85  56  37 NW14G21   29.89R
$$

CITY           SKY/WX    TMP DP  RH WIND       PRES   REMARKS
BILLINGS       SUNNY     84  33  16 NW17G24   30.04F
GREAT FALLS    SUNNY     78  19  11 SW23G29   30.01F
$$





USA.gov is the U.S. government's official web portal to all federal, state and local government web resources and services.